DB5ZQ Weather Reports


time (UTC)temp
C
wind
direction
speed
KPH
gust
KPH
rain 1hr
cm
rain 24hr
cm
rain mn
cm
humidity
%
barometer
mb
20260506080857 16 19 1.6 11.3 0.00 0.33 0.15 71 1001.4
20260506080357 16 26 3.2 6.4 0.00 0.33 0.15 73 1001.4
20260506073355 16 316 3.2 12.9 0.00 0.33 0.15 77 1001.4
20260506072855 15 39 3.2 11.3 0.00 0.33 0.15 78 1001.5
20260506072355 15 291 6.4 11.3 0.00 0.33 0.15 79 1001.5
20260506071854 16 28 0.0 12.9 0.00 0.33 0.15 79 1001.5
20260506071354 15 1 9.7 14.5 0.00 0.33 0.15 79 1001.5
20260506070854 15 22 3.2 9.7 0.00 0.33 0.15 81 1001.6
20260506070354 15 23 1.6 8.0 0.00 0.33 0.15 81 1001.5
20260506062351 15 32 6.4 8.0 0.00 0.33 0.15 84 1001.4
20260506061851 15 66 0.0 8.0 0.00 0.33 0.15 84 1001.4
20260506061351 15 4 4.8 9.7 0.00 0.33 0.15 84 1001.5
20260506060850 15 50 0.0 4.8 0.00 0.33 0.15 85 1001.4
20260506060350 15 284 0.0 8.0 0.00 0.33 0.15 85 1001.4
20260506051347 15 45 0.0 6.4 0.00 0.33 0.15 87 1001.4
20260506050847 15 28 1.6 4.8 0.00 0.33 0.15 87 1001.4
20260506050347 15 78 0.0 4.8 0.00 0.33 0.15 87 1001.4
20260506044846 15 57 0.0 4.8 0.00 0.33 0.15 87 1001.4
20260506044346 14 60 1.6 8.0 0.00 0.33 0.15 87 1001.5
20260506043845 15 5 0.0 3.2 0.00 0.33 0.15 87 1001.4
20260506043345 15 151 0.0 6.4 0.00 0.33 0.15 87 1001.5
20260506042845 15 358 0.0 6.4 0.00 0.33 0.15 86 1001.5
20260506042345 15 9 0.0 3.2 0.00 0.33 0.15 86 1001.5
20260506041844 15 18 0.0 0.0 0.00 0.33 0.15 86 1001.6
20260506041344 15 18 0.0 0.0 0.00 0.33 0.15 86 1001.5
20260506040844 15 18 0.0 0.0 0.00 0.33 0.15 86 1001.6
20260506040343 15 18 0.0 4.8 0.00 0.33 0.15 86 1001.6
20260506035843 15 14 0.0 0.0 0.00 0.33 0.15 86 1001.5
20260506035343 15 14 0.0 0.0 0.00 0.33 0.15 86 1001.5
20260506034843 15 14 0.0 4.8 0.00 0.33 0.15 86 1001.5
20260506034342 15 136 1.6 1.6 0.00 0.33 0.15 86 1001.6
20260506033842 15 225 0.0 1.6 0.00 0.33 0.15 86 1001.5
20260506033342 15 40 0.0 1.6 0.00 0.33 0.15 86 1001.6
20260506032841 15 116 0.0 1.6 0.00 0.33 0.15 86 1001.6
20260506032341 15 142 0.0 6.4 0.00 0.33 0.15 86 1001.6
20260506031841 15 154 0.0 0.0 0.00 0.33 0.15 86 1001.6
20260506031341 15 154 0.0 0.0 0.00 0.33 0.15 86 1001.6
20260506030840 15 154 0.0 0.0 0.00 0.33 0.15 86 1001.6
20260506030340 15 154 0.0 0.0 0.00 0.33 0.15 86 1001.6
20260506025840 15 154 0.0 0.0 0.00 0.33 0.15 86 1001.6
20260506025339 15 154 0.0 0.0 0.00 0.33 0.15 86 1001.5
20260506024839 15 154 0.0 0.0 0.00 0.33 0.15 86 1001.6
20260506024339 15 154 0.0 0.0 0.00 0.33 0.15 86 1001.6
20260506023839 15 154 0.0 1.6 0.00 0.33 0.15 86 1001.6
20260506023338 15 154 0.0 1.6 0.00 0.33 0.15 87 1001.6
20260506022838 15 11 0.0 3.2 0.00 0.33 0.15 87 1001.7
20260506022338 15 32 1.6 4.8 0.00 0.33 0.15 86 1001.7
20260506021837 15 37 0.0 8.0 0.00 0.33 0.15 86 1001.7
20260506021337 15 16 1.6 3.2 0.00 0.33 0.15 87 1001.7
20260506020837 15 33 0.0 0.0 0.00 0.33 0.15 87 1001.7
20260506020337 15 33 0.0 0.0 0.00 0.33 0.15 87 1001.7
20260506015836 15 33 0.0 0.0 0.00 0.33 0.15 87 1001.7
20260506015336 15 33 0.0 3.2 0.00 0.33 0.15 87 1001.8
20260506014836 15 2 0.0 0.0 0.00 0.33 0.15 87 1001.8
20260506014335 15 2 0.0 8.0 0.00 0.33 0.15 87 1001.8
20260506013835 15 98 3.2 9.7 0.00 0.33 0.15 87 1001.9
20260506013335 15 12 1.6 8.0 0.00 0.33 0.15 87 1001.9
20260506012835 15 16 4.8 8.0 0.00 0.33 0.15 87 1001.9
20260506012334 15 25 0.0 6.4 0.00 0.33 0.15 87 1001.9
20260506011834 15 53 1.6 9.7 0.00 0.33 0.15 87 1001.9
20260506011334 15 46 3.2 6.4 0.00 0.33 0.15 87 1001.8
20260506010833 15 18 0.0 6.4 0.00 0.33 0.15 87 1001.8
20260506010333 15 329 0.0 4.8 0.03 0.33 0.15 87 1001.8
20260506005833 15 28 3.2 4.8 0.03 0.33 0.15 87 1001.8
20260506005333 15 47 1.6 8.0 0.03 0.33 0.15 87 1001.9
20260506004832 15 5 0.0 8.0 0.03 0.33 0.15 87 1001.8
20260506004332 15 5 1.6 6.4 0.03 0.33 0.15 87 1001.9
20260506003832 15 144 4.8 9.7 0.05 0.33 0.15 87 1001.9
20260506003332 15 14 1.6 11.3 0.08 0.33 0.15 87 1002.0
20260506002831 15 43 0.0 8.0 0.13 0.33 0.15 87 1001.9
20260506002331 15 306 1.6 8.0 0.15 0.33 0.15 87 1001.9
20260506001831 16 351 0.0 4.8 0.15 0.33 0.15 87 1002.0
20260506001330 15 30 0.0 3.2 0.15 0.33 0.15 87 1002.0
20260506000830 16 37 0.0 8.0 0.15 0.33 0.15 86 1002.0
20260506000330 16 85 1.6 8.0 0.13 0.30 0.13 86 1002.0
20260505235830 16 12 0.0 6.4 0.13 0.30 0.13 86 1002.0
20260505235329 16 317 0.0 0.0 0.13 0.30 0.13 86 1002.1
20260505234829 16 317 0.0 1.6 0.13 0.30 0.13 86 1002.0
20260505234329 16 244 0.0 0.0 0.13 0.30 0.13 86 1002.1
20260505233828 16 244 0.0 6.4 0.10 0.28 0.10 85 1002.2
20260505233328 16 73 4.8 9.7 0.08 0.25 0.08 85 1002.2
20260505232828 16 36 1.6 6.4 0.03 0.20 0.03 85 1002.2
20260505232328 16 329 0.0 6.4 0.00 0.18 0.00 85 1002.2
20260505231827 16 32 0.0 6.4 0.00 0.18 0.00 85 1002.3
20260505231327 16 11 0.0 11.3 0.00 0.18 0.00 84 1002.3
20260505230827 16 40 0.0 4.8 0.00 0.18 0.00 84 1002.3
20260505230326 16 16 1.6 9.7 0.00 0.18 0.00 84 1002.3
20260505225826 16 12 1.6 3.2 0.00 0.18 0.00 84 1002.3
20260505225326 16 57 0.0 8.0 0.00 0.18 0.00 84 1002.3
20260505224826 16 35 0.0 8.0 0.00 0.18 0.00 83 1002.3
20260505224325 16 63 0.0 9.7 0.00 0.18 0.00 83 1002.4
20260505223825 16 32 1.6 1.6 0.00 0.18 0.00 83 1002.4
20260505223325 16 32 0.0 0.0 0.00 0.18 0.00 83 1002.4
20260505222824 16 32 0.0 0.0 0.00 0.18 0.00 83 1002.5
20260505222324 16 32 0.0 4.8 0.00 0.18 0.00 82 1002.5
20260505221824 16 351 0.0 0.0 0.00 0.18 0.00 82 1002.5
20260505221324 16 351 0.0 0.0 0.00 0.18 0.00 82 1002.6
20260505220823 16 351 0.0 0.0 0.00 0.18 0.00 81 1002.6
20260505220323 16 351 0.0 0.0 0.00 0.18 0.00 81 1002.6
20260505215823 16 351 0.0 0.0 0.00 0.18 0.00 81 1002.7
20260505215322 17 351 0.0 0.0 0.00 0.18 0.00 81 1002.6
20260505214822 16 351 0.0 0.0 0.00 0.18 0.00 81 1002.6
20260505214322 17 351 0.0 0.0 0.00 0.18 0.00 81 1002.7
20260505213822 16 351 0.0 0.0 0.00 0.18 0.00 81 1002.8
20260505213321 16 351 0.0 0.0 0.00 0.18 0.00 81 1002.9
20260505212821 17 351 0.0 0.0 0.00 0.18 0.18 81 1002.8
20260505212321 16 351 0.0 0.0 0.00 0.18 0.18 81 1002.8
20260505211820 17 351 0.0 0.0 0.00 0.18 0.18 81 1002.9
20260505211320 17 351 0.0 0.0 0.00 0.18 0.18 81 1003.0
20260505210820 16 351 0.0 0.0 0.00 0.18 0.18 81 1003.0
20260505210320 17 351 0.0 0.0 0.00 0.18 0.18 81 1003.0
20260505205819 16 351 0.0 0.0 0.00 0.18 0.18 81 1003.0
20260505205319 16 351 0.0 0.0 0.00 0.18 0.18 82 1003.0
20260505204819 16 351 0.0 0.0 0.00 0.18 0.18 81 1003.0
20260505204318 17 351 0.0 1.6 0.00 0.18 0.18 81 1002.9
20260505203818 17 82 0.0 0.0 0.00 0.18 0.18 81 1003.0
20260505203318 17 82 0.0 0.0 0.00 0.18 0.18 81 1003.0
20260505202818 17 82 0.0 0.0 0.00 0.18 0.18 81 1003.0
20260505202317 17 82 0.0 0.0 0.00 0.18 0.18 81 1003.0
20260505201817 17 82 0.0 0.0 0.00 0.18 0.18 81 1003.1
20260505201317 17 82 0.0 0.0 0.00 0.18 0.18 81 1003.0
20260505200817 17 82 0.0 0.0 0.00 0.18 0.18 81 1003.0
20260505200316 17 82 0.0 0.0 0.00 0.18 0.18 81 1003.0
20260505195816 17 82 0.0 0.0 0.00 0.18 0.18 81 1002.9
20260505195316 17 82 0.0 0.0 0.00 0.18 0.18 81 1002.9
20260505194815 17 82 0.0 0.0 0.00 0.18 0.18 81 1002.9
20260505194315 17 82 0.0 0.0 0.00 0.18 0.18 80 1002.9
20260505193815 17 82 0.0 0.0 0.00 0.18 0.18 81 1002.8
20260505193315 17 82 0.0 0.0 0.00 0.18 0.18 80 1002.8
20260505192814 17 82 0.0 0.0 0.00 0.18 0.18 80 1002.8
20260505192314 17 82 0.0 0.0 0.00 0.18 0.18 80 1002.8
20260505191814 17 82 0.0 0.0 0.00 0.18 0.18 80 1002.8
20260505191313 17 82 0.0 0.0 0.00 0.18 0.18 80 1002.8
20260505190813 17 82 0.0 0.0 0.00 0.18 0.18 80 1002.7
20260505190313 17 82 0.0 0.0 0.00 0.18 0.18 80 1002.7
20260505185813 17 82 0.0 0.0 0.00 0.18 0.18 80 1002.8
20260505185312 17 82 0.0 0.0 0.00 0.18 0.18 79 1002.7
20260505184812 17 82 0.0 0.0 0.00 0.18 0.18 79 1002.7
20260505184312 17 82 0.0 0.0 0.00 0.18 0.18 79 1002.7
20260505183811 17 82 0.0 0.0 0.00 0.18 0.18 79 1002.7
20260505183311 17 82 0.0 0.0 0.00 0.18 0.18 79 1002.7
20260505182811 17 82 0.0 0.0 0.00 0.18 0.18 79 1002.7
20260505182311 17 82 0.0 0.0 0.00 0.18 0.18 79 1002.7
20260505181810 17 82 0.0 0.0 0.00 0.18 0.18 79 1002.7
20260505181310 17 82 0.0 0.0 0.03 0.18 0.18 79 1002.7
20260505180810 17 82 0.0 0.0 0.03 0.18 0.18 78 1002.7
20260505180309 17 82 0.0 0.0 0.03 0.18 0.18 78 1002.7
20260505175809 17 82 0.0 0.0 0.03 0.18 0.18 78 1002.7
20260505175309 17 82 0.0 0.0 0.03 0.18 0.18 78 1002.7
20260505174809 17 82 0.0 0.0 0.05 0.18 0.18 78 1002.8
20260505174308 17 82 0.0 0.0 0.05 0.18 0.18 78 1002.8
20260505173808 17 82 0.0 0.0 0.05 0.18 0.18 78 1002.9
20260505173308 17 82 0.0 0.0 0.05 0.18 0.18 78 1002.9
20260505172807 17 82 0.0 0.0 0.05 0.18 0.18 78 1002.9
20260505172307 17 82 0.0 0.0 0.08 0.18 0.18 77 1002.9
20260505171807 17 82 0.0 0.0 0.08 0.18 0.18 77 1003.0
20260505171307 17 82 0.0 0.0 0.08 0.15 0.15 77 1003.0
20260505170806 17 82 0.0 0.0 0.08 0.15 0.15 77 1002.9
20260505170306 17 82 0.0 0.0 0.10 0.15 0.15 77 1003.0
20260505165806 17 82 0.0 0.0 0.10 0.15 0.15 77 1003.0
20260505165306 17 82 0.0 0.0 0.13 0.15 0.15 77 1003.0
20260505164805 17 82 0.0 3.2 0.10 0.13 0.13 77 1003.0
20260505164305 18 116 0.0 0.0 0.10 0.13 0.13 77 1003.0
20260505163805 17 116 0.0 6.4 0.10 0.13 0.13 77 1003.1
20260505163304 17 90 0.0 4.8 0.10 0.13 0.13 77 1003.1
20260505162804 18 106 0.0 3.2 0.13 0.13 0.13 77 1003.2
20260505162306 18 74 0.0 0.0 0.10 0.10 0.10 76 1003.2
20260505161804 18 74 0.0 6.4 0.10 0.10 0.10 76 1003.3
20260505161303 18 91 0.0 1.6 0.08 0.08 0.08 76 1003.3
20260505160803 18 8 0.0 6.4 0.08 0.08 0.08 75 1003.3
20260505160303 18 309 1.6 6.4 0.05 0.05 0.05 74 1003.3
20260505153301 19 49 3.2 4.8 0.03 0.03 0.03 70 1003.4
20260505152801 19 23 0.0 8.0 0.00 0.00 0.00 69 1003.3
20260505152300 19 30 0.0 4.8 0.00 0.00 0.00 69 1003.3
20260505151800 19 54 0.0 4.8 0.00 0.00 0.00 69 1003.2
20260505151300 19 94 0.0 8.0 0.00 0.00 0.00 68 1003.2
20260505150800 20 12 0.0 9.7 0.00 0.00 0.00 68 1003.2
20260505150259 20 142 1.6 4.8 0.00 0.00 0.00 69 1003.2
20260505140256 21 109 0.0 12.9 0.00 0.00 0.00 59 1003.2
20260505130252 22 122 0.0 3.2 0.00 0.00 0.00 48 1003.1
20260505124752 22 102 0.0 4.8 0.00 0.00 0.00 48 1003.2
20260505124251 22 136 0.0 0.0 0.00 0.00 0.00 48 1003.2
20260505123751 22 136 0.0 4.8 0.00 0.00 0.00 47 1003.3
20260505123251 22 329 0.0 1.6 0.00 0.00 0.00 46 1003.3
20260505122750 23 329 1.6 4.8 0.00 0.00 0.00 46 1003.3
20260505122250 23 14 0.0 3.2 0.00 0.00 0.00 45 1003.4
20260505121750 23 116 0.0 0.0 0.00 0.00 0.00 45 1003.4
20260505121250 23 116 0.0 4.8 0.00 0.00 0.00 44 1003.4
20260505120749 23 108 1.6 1.6 0.00 0.00 0.00 44 1003.4
20260505120249 23 120 0.0 4.8 0.00 0.00 0.00 44 1003.5
20260505115749 23 150 0.0 0.0 0.00 0.00 0.00 45 1003.5
20260505115248 23 150 0.0 0.0 0.00 0.00 0.00 46 1003.6
20260505114748 23 36 0.0 0.0 0.00 0.00 0.00 46 1003.6
20260505114248 23 36 0.0 0.0 0.00 0.00 0.00 46 1003.6
20260505113748 23 36 0.0 3.2 0.00 0.00 0.00 45 1003.7
20260505113247 23 99 0.0 8.0 0.00 0.00 0.00 45 1003.8
20260505112747 23 258 0.0 0.0 0.00 0.00 0.00 45 1003.8
20260505112247 23 258 0.0 0.0 0.00 0.00 0.00 46 1003.9
20260505111747 23 258 0.0 0.0 0.00 0.00 0.00 46 1004.0
20260505111246 23 267 0.0 1.6 0.00 0.00 0.00 47 1004.0
20260505110746 23 246 0.0 6.4 0.00 0.00 0.00 47 1004.0
20260505110246 23 194 1.6 4.8 0.00 0.00 0.00 48 1004.0
20260505101743 22 185 0.0 3.2 0.00 0.00 0.00 50 1004.4
20260505101243 22 232 0.0 0.0 0.00 0.00 0.00 51 1004.5
20260505100743 22 232 0.0 0.0 0.00 0.00 0.00 51 1004.5
20260505100242 22 230 0.0 0.0 0.00 0.00 0.00 51 1004.5
20260505095742 22 230 0.0 0.0 0.00 0.00 0.00 51 1004.5
20260505095242 22 230 0.0 0.0 0.00 0.00 0.00 52 1004.5
20260505094741 21 230 0.0 1.6 0.00 0.00 0.00 53 1004.6
20260505094241 21 216 0.0 3.2 0.00 0.00 0.00 54 1004.6
20260505093741 21 234 0.0 6.4 0.00 0.00 0.00 54 1004.5
20260505093241 21 250 0.0 4.8 0.00 0.00 0.00 55 1004.6
20260505092740 21 267 3.2 3.2 0.00 0.00 0.00 56 1004.6
20260505092240 21 137 0.0 0.0 0.00 0.00 0.00 56 1004.7
20260505091740 21 137 0.0 3.2 0.00 0.00 0.00 57 1004.7
20260505091239 21 53 0.0 4.8 0.00 0.00 0.00 57 1004.8
20260505090739 21 161 3.2 3.2 0.00 0.00 0.00 58 1004.9
20260505090239 20 59 1.6 6.4 0.00 0.00 0.00 59 1004.8
20260505085739 20 99 1.6 4.8 0.00 0.00 0.00 59 1004.9
20260505085238 20 222 0.0 0.0 0.00 0.00 0.00 60 1005.0
20260505084738 20 222 0.0 1.6 0.00 0.00 0.00 60 1005.0
20260505084238 20 239 0.0 4.8 0.00 0.00 0.00 60 1005.0
20260505083737 20 258 0.0 6.4 0.00 0.00 0.00 61 1005.1
20260505083237 20 163 1.6 3.2 0.00 0.00 0.00 61 1005.1
20260505082737 20 237 3.2 4.8 0.00 0.00 0.00 62 1005.1
20260505082237 20 267 1.6 4.8 0.00 0.00 0.00 62 1005.1
20260505081736 20 292 0.0 1.6 0.00 0.00 0.00 63 1005.2
20260505081236 19 212 0.0 0.0 0.00 0.00 0.00 62 1005.3